Miscellaneous Local Product
Issued by NWS Hastings, NE

Home | Current Version | Previous Version | Graphics & Text | Print | Product List | Glossary On
Versions: 1 2 3 4 5 6 7 8 9 10 11 12 13 14 15 16 17 18 19 20 21 22 23 24 25 26 27 28 29 30 31 32 33 34 35 36 37 38 39 40 41 42 43 44 45 46 47 48 49 50
000
AXUS43 KGID 252002
MISGRI

GID CWA HOURLY WEATHER ROUNDUP
NATIONAL WEATHER SERVICE HASTINGS NE
300 PM CDT MON SEP 25 2017

NOTE: "FAIR" INDICATES FEW OR NO CLOUDS BELOW 12,000 FEET WITH NO
SIGNIFICANT WEATHER AND/OR OBSTRUCTIONS TO VISIBILITY.

...SOUTH CENTRAL NEBRASKA...

CITY           SKY/WX    TMP DP  RH WIND       PRES   REMARKS
GRAND ISLAND   LGT RAIN  53  53 100 N13       30.01S FOG
HASTINGS       CLOUDY    53  51  93 N12       30.00F FOG
KEARNEY        LGT RAIN  53  52  96 N10       30.02S FOG
ORD            CLOUDY    51  48  89 N10       30.02S
YORK           CLOUDY    57  57 100 N6        29.97S
AURORA         CLOUDY    53  53 100 N8        29.99S FOG
LEXINGTON      CLOUDY    54  49  82 NE12      30.03F
HOLDREGE       LGT RAIN  53  51  94 N12       30.01F
HEBRON         DRIZZLE   60  59  97 N7        29.94F

...NEBRASKA PANHANDLE...

CITY           SKY/WX    TMP DP  RH WIND       PRES   REMARKS
CHADRON        CLOUDY    52  40  63 CALM      30.10F
ALLIANCE       CLOUDY    50  41  71 N9        30.09R
SCOTTSBLUFF    CLOUDY    52  41  66 W7        30.09F
SIDNEY         CLOUDY    51  42  71 N13       30.09S

...WESTERN AND NORTH CENTRAL NEBRASKA...

CITY           SKY/WX    TMP DP  RH WIND       PRES   REMARKS
VALENTINE      CLOUDY    53  45  74 N9        30.08R
AINSWORTH      CLOUDY    49  47  93 N12       30.08R
ONEILL         CLOUDY    50  50 100 N13       30.05R
BROKEN BOW     CLOUDY    52  47  83 N13       30.03S
IMPERIAL       RAIN      51  47  86 NE7       30.06F
NORTH PLATTE   CLOUDY    52  48  86 N10       30.06R
MCCOOK         CLOUDY    53  49  86 NE12      30.03F

...EASTERN NEBRASKA...

CITY           SKY/WX    TMP DP  RH WIND       PRES   REMARKS
NORFOLK        LGT RAIN  54  54 100 N13       29.99R FOG
SO SIOUX CITY  CLOUDY    59  57  93 N13       29.95F
TEKAMAH        LGT RAIN  62  60  93 N9        29.92F
COLUMBUS       CLOUDY    57  56  96 NW8       29.98R
ALBION         CLOUDY    54  52  92 N9        30.01R
OMAHA EPPLEY   CLOUDY    68  63  84 N9        29.91F
OFFUTT AFB     LGT RAIN  68  65  91 W9        29.90S
MILLARD        CLOUDY    65  63  94 NW7       29.92F
LINCOLN        CLOUDY    62  60  93 NE7       29.95R
NEBRASKA CITY  CLOUDY    73  69  88 NW8       29.91R
BEATRICE       RAIN      63  62  98 CALM      29.95S
FALLS CITY     CLOUDY    73  69  87 NW6       29.87R

...NORTHERN KANSAS...

CITY           SKY/WX    TMP DP  RH WIND       PRES   REMARKS
GOODLAND       CLOUDY    50  49  96 N13       30.03F FOG
HILL CITY      CLOUDY    56  54  93 N12       29.99S
NORTON         DRIZZLE   54  48  82 N9        30.00S
PHILLIPSBURG   CLOUDY    55  55 100 N13       29.98F FOG
SMITH CENTER   CLOUDY    55  54  94 N13       29.95F
HAYS           CLOUDY    57  55  93 N16       29.95F
RUSSELL        LGT RAIN  57  56  96 N15       29.92S FOG
CONCORDIA      LGT RAIN  63  63 100 NE5       29.92F
SALINA         HVY RAIN  67  64  90 E5        29.93R FOG
TOPEKA         CLOUDY    86  67  52 SE10      29.85F



USA.gov is the U.S. government's official web portal to all federal, state and local government web resources and services.